TimePDT,TemperatureF,Dew PointF,Humidity,Sea Level PressureIn,VisibilityMPH,Wind Direction,Wind SpeedMPH,Gust SpeedMPH,PrecipitationIn,Events,Conditions,WindDirDegrees,DateUTC
12:04 AM,46.4,44.6,93,30.21,9.0,Calm,Calm,-,N/A,,Overcast,0,2013-10-03 07:04:00
12:18 AM,46.4,44.6,93,30.21,6.0,Calm,Calm,-,N/A,,Overcast,0,2013-10-03 07:18:00
12:33 AM,46.4,44.6,93,30.21,6.0,Calm,Calm,-,N/A,,Scattered Clouds,0,2013-10-03 07:33:00
12:44 AM,44.6,44.6,100,30.21,1.8,Calm,Calm,-,N/A,,Partly Cloudy,0,2013-10-03 07:44:00
12:50 AM,44.6,44.6,100,30.22,0.8,Calm,Calm,-,N/A,,Mist,0,2013-10-03 07:50:00
12:53 AM,44.1,44.1,100,30.22,0.8,Calm,Calm,-,N/A,,Mist,0,2013-10-03 07:53:00
1:00 AM,44.6,44.6,100,30.22,2.0,Calm,Calm,-,N/A,,Mostly Cloudy,0,2013-10-03 08:00:00
1:09 AM,44.6,44.6,100,30.22,5.0,Calm,Calm,-,N/A,,Mostly Cloudy,0,2013-10-03 08:09:00
1:26 AM,46.4,46.4,100,30.22,1.8,Calm,Calm,-,N/A,,Overcast,0,2013-10-03 08:26:00
1:34 AM,46.4,46.4,100,30.23,0.2,Calm,Calm,-,N/A,Fog,Fog,0,2013-10-03 08:34:00
1:53 AM,45.0,45.0,100,30.24,0.2,Calm,Calm,-,N/A,Fog,Fog,0,2013-10-03 08:53:00
2:00 AM,44.6,44.6,100,30.24,0.2,Calm,Calm,-,N/A,Fog,Fog,0,2013-10-03 09:00:00
2:26 AM,44.6,44.6,100,30.25,0.2,Calm,Calm,-,N/A,Fog,Fog,0,2013-10-03 09:26:00
2:53 AM,45.0,45.0,100,30.26,0.2,Calm,Calm,-,N/A,Fog,Fog,0,2013-10-03 09:53:00
3:53 AM,45.0,45.0,100,30.27,0.5,Calm,Calm,-,N/A,Fog,Fog,0,2013-10-03 10:53:00
4:51 AM,44.6,44.6,100,30.29,0.2,Calm,Calm,-,N/A,Fog,Fog,0,2013-10-03 11:51:00
4:53 AM,45.0,45.0,100,30.30,0.2,Calm,Calm,-,N/A,Fog,Fog,0,2013-10-03 11:53:00
5:05 AM,44.6,44.6,100,30.30,0.5,Calm,Calm,-,N/A,Fog,Fog,0,2013-10-03 12:05:00
5:18 AM,44.6,44.6,100,30.30,0.2,Calm,Calm,-,N/A,Fog,Fog,0,2013-10-03 12:18:00
5:26 AM,44.6,44.6,100,30.30,0.5,WSW,3.5,-,N/A,Fog,Fog,250,2013-10-03 12:26:00
5:53 AM,45.0,45.0,100,30.31,0.5,Calm,Calm,-,N/A,Fog,Fog,0,2013-10-03 12:53:00
6:41 AM,44.6,44.6,100,30.33,1.0,Calm,Calm,-,N/A,,Mist,0,2013-10-03 13:41:00
6:53 AM,44.1,44.1,100,30.34,0.8,Calm,Calm,-,N/A,,Mist,0,2013-10-03 13:53:00
7:33 AM,44.6,44.6,100,30.34,0.2,Calm,Calm,-,N/A,Fog,Fog,0,2013-10-03 14:33:00
7:53 AM,45.0,44.1,97,30.35,0.2,Calm,Calm,-,N/A,Fog,Fog,0,2013-10-03 14:53:00
8:34 AM,44.6,44.6,100,30.37,1.0,WSW,3.5,-,N/A,,Mist,240,2013-10-03 15:34:00
8:53 AM,45.0,45.0,100,30.38,1.2,Calm,Calm,-,N/A,,Overcast,0,2013-10-03 15:53:00
9:26 AM,44.6,44.6,100,30.39,2.5,Calm,Calm,-,N/A,,Overcast,0,2013-10-03 16:26:00
9:45 AM,44.6,44.6,100,30.39,3.0,South,4.6,-,N/A,,Overcast,190,2013-10-03 16:45:00
9:53 AM,45.0,45.0,100,30.39,2.0,Calm,Calm,-,N/A,,Overcast,0,2013-10-03 16:53:00
10:06 AM,46.4,44.6,93,30.40,3.0,WSW,4.6,-,N/A,,Overcast,250,2013-10-03 17:06:00
10:13 AM,46.4,44.6,93,30.40,2.5,Calm,Calm,-,N/A,,Overcast,0,2013-10-03 17:13:00
10:22 AM,44.6,44.6,100,30.40,6.0,WSW,3.5,-,N/A,,Overcast,240,2013-10-03 17:22:00
10:53 AM,46.0,46.0,100,30.41,6.0,Calm,Calm,-,N/A,,Overcast,0,2013-10-03 17:53:00
11:35 AM,46.4,44.6,93,30.41,10.0,Calm,Calm,-,N/A,,Overcast,0,2013-10-03 18:35:00
11:53 AM,48.0,46.0,93,30.42,10.0,Calm,Calm,-,N/A,,Overcast,0,2013-10-03 18:53:00
12:53 PM,50.0,46.0,86,30.42,10.0,Calm,Calm,-,N/A,,Mostly Cloudy,0,2013-10-03 19:53:00
1:30 PM,53.6,46.4,77,30.42,10.0,Calm,Calm,-,N/A,,Scattered Clouds,0,2013-10-03 20:30:00
1:53 PM,54.0,46.0,75,30.42,10.0,Calm,Calm,-,N/A,,Clear,0,2013-10-03 20:53:00
2:53 PM,55.9,43.0,62,30.42,10.0,Calm,Calm,-,N/A,,Scattered Clouds,0,2013-10-03 21:53:00
3:53 PM,59.0,44.1,58,30.42,10.0,NE,4.6,-,N/A,,Mostly Cloudy,40,2013-10-03 22:53:00
4:53 PM,55.9,43.0,62,30.42,10.0,ENE,4.6,-,N/A,,Overcast,70,2013-10-03 23:53:00
5:53 PM,55.0,44.1,67,30.42,10.0,Calm,Calm,-,N/A,,Mostly Cloudy,0,2013-10-04 00:53:00
6:53 PM,51.1,44.1,77,30.43,10.0,Calm,Calm,-,N/A,,Clear,0,2013-10-04 01:53:00
7:53 PM,51.1,45.0,80,30.43,10.0,East,4.6,-,N/A,,Clear,80,2013-10-04 02:53:00
9:53 PM,46.0,44.1,93,30.43,9.0,Calm,Calm,-,N/A,,Clear,0,2013-10-04 04:53:00
10:51 PM,42.8,42.8,100,30.43,1.8,Calm,Calm,-,N/A,,Clear,0,2013-10-04 05:51:00
10:53 PM,43.0,42.1,97,30.43,1.2,Calm,Calm,-,N/A,,Clear,0,2013-10-04 05:53:00
11:05 PM,42.8,42.8,100,30.43,3.0,Calm,Calm,-,N/A,,Clear,0,2013-10-04 06:05:00
11:30 PM,42.8,42.8,100,30.43,2.5,Calm,Calm,-,N/A,,Clear,0,2013-10-04 06:30:00
11:39 PM,42.8,42.8,100,30.44,9.0,Calm,Calm,-,N/A,,Clear,0,2013-10-04 06:39:00
11:53 PM,43.0,42.1,97,30.44,7.0,Calm,Calm,-,N/A,,Clear,0,2013-10-04 06:53:00